PGT24BK LTCR-LTBJ

Flight info

Callsign PGT24BK
Flight time N/A
Altitude 34000
Route ARTAR UT470 ADKAR DCT MANAZ/N0457F330 UW74 MUT/N0457F340 UR55 AYT UN135 BAPSI
Aircraft A21N/M-SDE2E3FGHIRWXY/LB1

Departure

Time 2026-05-04 11:22
Airport Mardin Airport (LTCR)

Arrival

Time N/A
Airport Adnan Menderes International Airport (LTBJ)
Time Latitude Longitude Altitude Speed Heading
2026-05-04 10:39 37.23393 40.63782 1738 ft 0 kts 307°
2026-05-04 10:51 37.23395 40.63780 1732 ft 0 kts 307°
2026-05-04 11:12 37.23402 40.63889 1732 ft 0 kts 218°
2026-05-04 11:16 37.23376 40.63864 1732 ft 4 kts 218°
2026-05-04 11:16 37.23343 40.63852 1732 ft 6 kts 165°
2026-05-04 11:16 37.23330 40.63862 1734 ft 1 kts 139°
2026-05-04 11:17 37.23350 40.63841 1729 ft 4 kts 139°
2026-05-04 11:17 37.23357 40.63833 1729 ft 0 kts 139°
2026-05-04 11:19 37.23286 40.63927 1731 ft 1 kts 128°
2026-05-04 11:19 37.23273 40.63949 1732 ft 5 kts 128°
2026-05-04 11:19 37.23244 40.63995 1731 ft 8 kts 137°
2026-05-04 11:19 37.23190 40.63986 1732 ft 9 kts 217°
2026-05-04 11:20 37.23175 40.63973 1731 ft 1 kts 216°
2026-05-04 11:20 37.23163 40.63962 1730 ft 8 kts 216°
2026-05-04 11:20 37.22915 40.63723 1725 ft 84 kts 217°
2026-05-04 11:20 37.22273 40.63112 1697 ft 142 kts 217°
2026-05-04 11:22 37.15131 40.56287 5633 ft 210 kts 238°
2026-05-04 11:22 37.14774 40.54507 6381 ft 217 kts 269°
2026-05-04 11:23 37.15273 40.52703 7083 ft 227 kts 302°
2026-05-04 11:23 37.16489 40.51393 7774 ft 237 kts 325°
2026-05-04 11:24 37.21488 40.41853 11191 ft 272 kts 258°
2026-05-04 11:25 37.21213 40.39408 11483 ft 294 kts 259°
2026-05-04 11:25 37.20967 40.36803 11751 ft 315 kts 261°
2026-05-04 11:25 37.20734 40.33982 12014 ft 335 kts 261°
2026-05-04 11:26 37.20277 40.27836 12499 ft 371 kts 262°
2026-05-04 11:27 37.18701 40.05547 15880 ft 392 kts 261°
2026-05-04 11:28 37.18455 40.02136 16373 ft 394 kts 261°
2026-05-04 11:28 37.18207 39.98700 16802 ft 396 kts 261°
2026-05-04 11:28 37.17956 39.95250 17215 ft 399 kts 261°
2026-05-04 11:28 37.17703 39.91774 17626 ft 402 kts 261°
2026-05-04 11:29 37.17448 39.88278 18043 ft 404 kts 261°
2026-05-04 11:29 37.17190 39.84758 18437 ft 406 kts 261°
2026-05-04 11:29 37.16934 39.81233 18812 ft 407 kts 261°
2026-05-04 11:29 37.16673 39.77698 19166 ft 408 kts 261°
2026-05-04 11:31 37.14804 39.52865 21313 ft 412 kts 261°
2026-05-04 11:33 37.12842 39.27605 24155 ft 421 kts 260°
2026-05-04 11:33 37.12554 39.23988 24473 ft 423 kts 260°
2026-05-04 11:33 37.12267 39.20317 24851 ft 423 kts 260°
2026-05-04 11:34 37.11978 39.16656 25349 ft 421 kts 260°
2026-05-04 11:34 37.11691 39.13019 25874 ft 418 kts 259°
2026-05-04 11:34 37.11400 39.09399 26343 ft 417 kts 259°
2026-05-04 11:34 37.11106 39.05784 26749 ft 416 kts 259°
2026-05-04 11:35 37.10814 39.02181 27205 ft 415 kts 259°
2026-05-04 11:35 37.10524 38.98598 27657 ft 413 kts 259°
2026-05-04 11:35 37.10234 38.95034 28159 ft 409 kts 258°
2026-05-04 11:35 37.09946 38.91499 28649 ft 406 kts 258°
2026-05-04 11:36 37.09656 38.87991 29167 ft 405 kts 258°
2026-05-04 11:36 37.09359 38.84478 29446 ft 407 kts 258°
2026-05-04 11:36 37.09018 38.80949 29830 ft 407 kts 257°
2026-05-04 11:36 37.08671 38.77433 30207 ft 406 kts 257°
2026-05-04 11:37 37.08320 38.73928 30530 ft 406 kts 257°
2026-05-04 11:37 37.07969 38.70427 30841 ft 405 kts 257°
2026-05-04 11:37 37.07616 38.66929 31152 ft 405 kts 257°
2026-05-04 11:37 37.07265 38.63428 31397 ft 406 kts 258°
2026-05-04 11:38 37.06916 38.59907 31564 ft 409 kts 258°
2026-05-04 11:38 37.06564 38.56377 31875 ft 407 kts 258°
2026-05-04 11:38 37.06207 38.52865 32219 ft 406 kts 258°
2026-05-04 11:38 37.05862 38.49365 32545 ft 405 kts 258°
2026-05-04 11:39 37.05520 38.45869 32840 ft 404 kts 258°
2026-05-04 11:39 37.05182 38.42433 33114 ft 403 kts 258°
2026-05-04 11:40 37.03095 38.21602 33926 ft 401 kts 258°
2026-05-04 11:41 37.02744 38.18148 33919 ft 401 kts 258°
2026-05-04 11:41 37.02037 38.11192 33907 ft 403 kts 258°
2026-05-04 11:42 37.01327 38.04228 33908 ft 403 kts 258°
2026-05-04 11:42 37.00607 37.97266 33918 ft 403 kts 258°
2026-05-04 11:43 36.99883 37.90260 33918 ft 410 kts 258°
2026-05-04 11:43 36.99148 37.83227 33901 ft 411 kts 258°
2026-05-04 11:44 36.98410 37.76169 33882 ft 405 kts 258°
2026-05-04 11:44 36.97634 37.69178 33916 ft 408 kts 258°
2026-05-04 11:45 36.96829 37.62098 33896 ft 412 kts 258°
2026-05-04 11:45 36.96025 37.55007 33886 ft 412 kts 258°
2026-05-04 11:46 36.95242 37.47909 33899 ft 412 kts 259°
2026-05-04 11:46 36.95158 37.40702 33908 ft 419 kts 267°
2026-05-04 11:47 36.95259 37.33431 33897 ft 417 kts 266°
2026-05-04 11:47 36.95328 37.26171 33894 ft 417 kts 266°
2026-05-04 11:48 36.95383 37.18901 33892 ft 420 kts 266°
2026-05-04 11:48 36.95414 37.11593 33872 ft 420 kts 266°
2026-05-04 11:49 36.95387 37.04290 33861 ft 420 kts 266°
2026-05-04 11:49 36.95365 36.96974 33865 ft 422 kts 266°
2026-05-04 11:50 36.95339 36.89609 33850 ft 423 kts 266°
2026-05-04 11:50 36.95313 36.82253 33833 ft 422 kts 266°
2026-05-04 11:51 36.95282 36.75003 33844 ft 419 kts 266°
2026-05-04 11:51 36.95243 36.67671 33852 ft 423 kts 266°
2026-05-04 11:52 36.95204 36.60312 33846 ft 423 kts 266°
2026-05-04 11:52 36.95159 36.52964 33840 ft 422 kts 266°
2026-05-04 11:53 36.94132 36.45802 33857 ft 419 kts 247°
2026-05-04 11:53 36.91466 36.39343 33837 ft 419 kts 240°
2026-05-04 11:55 36.80382 36.14024 33817 ft 417 kts 242°
2026-05-04 11:56 36.77606 36.07669 33820 ft 417 kts 242°
2026-05-04 11:56 36.75464 36.00964 33812 ft 419 kts 257°
2026-05-04 11:56 36.75178 35.97344 33816 ft 422 kts 268°
2026-05-04 11:57 36.75332 35.93682 33815 ft 424 kts 271°
2026-05-04 11:57 36.75794 35.86354 33815 ft 424 kts 271°
2026-05-04 11:58 36.76209 35.79015 33799 ft 424 kts 271°
2026-05-04 11:58 36.76600 35.71677 33815 ft 424 kts 271°
2026-05-04 11:59 36.76980 35.64403 33791 ft 420 kts 271°
2026-05-04 11:59 36.77355 35.57142 33788 ft 419 kts 271°
2026-05-04 12:00 36.77731 35.49878 33805 ft 419 kts 271°
2026-05-04 12:00 36.78102 35.42566 33792 ft 423 kts 271°
2026-05-04 12:01 36.78466 35.35236 33805 ft 423 kts 271°
2026-05-04 12:02 36.80855 35.09568 33806 ft 429 kts 278°
2026-05-04 12:03 36.82013 35.02257 33805 ft 429 kts 278°
2026-05-04 12:03 36.83149 34.94956 33804 ft 432 kts 278°
2026-05-04 12:04 36.84296 34.87589 33783 ft 432 kts 278°
2026-05-04 12:04 36.85433 34.80256 33797 ft 429 kts 278°
2026-05-04 12:05 36.86564 34.72924 33808 ft 430 kts 278°
2026-05-04 12:05 36.87717 34.65578 33804 ft 431 kts 278°
2026-05-04 12:06 36.88861 34.58232 33793 ft 431 kts 278°